Dewpoint
64 64 65 63 64 64 65 64 65 65 65 65 65 65 64 65 65 63 64 63 62 61 61 60 60 61 54 55 56 56 56 56 52 56 59 64 65 62 64 66 63 57 53
64 64 64 64 63 64 64 65 65 65 65 64 64 63 63 64 64 63 63 62 60 60 61 59 59 58 61 59 57 57 56 57 54 58 62 62 63 64 61 60 59 56 52
64 63 64 64 64 64 63 64 65 65 65 65 64 63 62 63 64 63 62 61 60 61 61 61 61 61 61 57 59 59 59 60 59 55 59 61 59 59 59 59 60 56 49
63 62 62 62 63 63 64 64 65 66 65 64 64 63 62 58 63 64 63 62 60 60 60 62 62 63 63 63 62 59 59 57 59 59 62 60 58 60 58 56 55 54 56
61 60 62 61 61 62 62 62 63 61 62 63 63 63 63 61 61 63 61 61 60 60 59 58 57 56 56 59 61 62 61 59 57 61 58 57 56 55 55 51 50 46 51
59 60 61 61 60 61 61 59 59 60 61 63 61 60 61 60 60 61 61 60 60 57 55 56 54 51 49 49 49 49 53 60 59 56 56 56 54 51 48 43 41 40 37
59 59 61 60 59 60 60 60 61 61 62 61 61 62 62 59 57 58 60 59 55 52 50 49 48 46 46 46 47 47 46 46 51 54 52 51 50 49 49 46 48 44 43
58 58 60 60 61 62 62 62 62 62 62 61 61 60 57 52 52 53 54 53 51 50 49 49 48 47 48 48 48 47 47 49 48 46 49 48 49 49 48 46 48 46 45
58 57 58 64 62 62 61 60 60 59 59 58 57 56 53 49 47 49 51 50 49 47 47 48 45 44 43 46 46 46 44 42 44 45 45 44 42 43 44 41 40 37 35
57 61 63 61 59 56 56 56 57 55 54 52 51 50 47 46 43 44 45 44 44 44 44 44 45 45 44 46 46 46 45 44 44 45 45 44 44 43 43 44 40 37 36
56 54 53 53 53 51 48 46 46 48 49 48 47 47 48 47 46 44 43 43 42 41 41 41 42 42 42 43 46 47 46 46 43 43 40 40 40 39 38 41 43 40 36
51 50 50 50 50 50 49 47 47 46 46 45 44 43 45 46 47 46 45 45 44 43 42 42 42 41 40 41 40 39 39 40 40 40 39 38 37 36 36 37 41 41 40
49 48 48 49 49 49 48 48 47 47 46 45 44 42 42 44 45 46 46 46 46 45 44 43 41 40 39 39 39 39 40 40 40 38 37 34 32 31 35 33 34 37 37
49 49 49 50 49 50 50 49 47 46 45 44 43 42 42 43 44 45 45 44 43 43 41 38 37 36 36 37 39 37 36 35 33 32 30 28 27 25 25 25 25 26 25
50 50 49 49 47 46 45 46 45 45 44 42 42 42 41 40 39 38 39 39 38 38 38 37 35 35 33 33 33 33 32 31 29 29 27 25 22 20 17 17 17 17 17
49 46 43 42 41 40 38 36 38 37 36 35 35 34 36 37 37 36 36 36 35 35 33 32 32 31 31 30 29 29 29 28 28 26 24 21 18 15 15 17 18 19 19
44 41 40 40 37 35 34 33 32 34 35 34 33 34 35 36 34 34 34 33 33 33 30 30 30 30 29 29 28 28 27 30 32 26 24 22 19 16 15 16 17 19 21
41 39 37 35 35 36 35 34 33 32 31 32 34 32 33 33 32 31 32 32 28 27 26 26 28 30 30 29 28 27 27 27 27 24 23 21 18 16 15 16 17 21 22
39 37 37 37 36 35 34 34 33 33 33 32 32 33 33 32 32 30 30 25 24 23 22 23 25 27 29 29 29 29 29 27 23 24 21 19 17 16 16 17 20 24 25
39 40 38 37 36 35 34 34 35 35 33 33 30 29 29 29 26 23 24 23 21 21 21 21 23 24 26 27 25 25 25 24 23 20 20 17 16 16 16 18 22 24 24
38 40 40 37 38 39 37 37 37 36 33 31 30 27 24 25 21 21 20 21 21 21 22 23 21 21 21 22 23 24 22 22 21 20 18 16 17 16 17 20 23 23 23
38 38 38 37 38 40 40 40 38 36 32 30 28 25 24 22 19 20 21 22 23 24 24 24 22 21 20 23 24 24 21 20 21 20 18 17 17 17 17 20 23 22 21
37 37 38 39 40 41 40 38 35 34 31 28 26 22 20 20 20 22 24 25 25 25 25 24 23 21 21 24 25 25 24 25 25 23 20 18 19 18 18 20 20 20 19
36 34 34 35 36 36 35 33 31 30 28 25 22 20 20 21 22 26 26 27 26 27 27 27 27 27 27 28 27 27 25 26 25 23 21 20 21 20 20 19 17 17 17
34 34 33 33 32 32 31 30 29 27 25 22 20 20 21 23 24 25 26 27 27 27 26 25 23 24 24 25 28 29 28 23 24 23 21 22 23 23 20 18 17 17 17
34 34 33 33 32 31 30 29 28 26 22 20 19 21 22 23 25 25 26 28 27 25 25 25 25 25 23 22 26 27 24 21 24 23 22 22 22 20 19 18 18 18 16
Wind_Speed
3 4 3 5 8 6 8 8 8 9 11 11 11 11 12 13 9 7 9 10 10 8 6 8 8 4 8 7 6 6 6 6 8 9 4 5 5 6 8 8 10 12 15
2 4 4 7 7 6 5 6 5 5 7 12 11 11 10 13 13 9 6 4 5 5 8 5 4 5 5 6 7 5 4 3 6 3 4 6 7 8 8 8 8 10 10
5 4 5 7 7 5 6 4 5 7 8 7 6 11 10 11 12 11 9 5 3 3 4 4 5 3 4 4 4 0 2 4 5 7 5 6 8 9 9 8 7 8 8
6 5 9 8 8 6 6 8 7 8 10 8 8 9 10 10 9 11 8 7 4 4 6 7 6 4 2 1 1 1 4 6 4 1 6 7 6 3 4 3 6 1 3
7 7 11 10 8 9 11 11 12 11 11 7 8 6 9 9 7 11 10 8 7 9 10 11 12 13 16 13 5 6 1 4 6 8 7 8 7 5 3 1 1 1 5
10 10 12 11 9 9 11 12 12 11 11 7 6 8 7 4 3 8 11 10 10 12 13 12 11 13 19 21 22 23 18 6 6 5 5 9 6 4 2 2 2 3 3
12 12 13 12 11 10 8 9 9 9 8 7 6 6 8 7 5 10 12 11 11 11 12 11 10 10 10 12 14 17 21 20 16 9 9 8 7 6 4 2 5 4 4
15 14 13 13 10 8 8 7 6 7 7 7 9 10 12 13 12 16 18 15 15 14 12 11 11 10 8 8 10 13 14 15 12 12 12 11 9 7 6 4 3 6 7
16 15 14 13 11 10 11 11 10 10 10 11 13 14 15 15 14 11 15 15 15 14 13 13 10 9 7 7 9 11 12 14 18 19 18 15 14 14 11 6 5 9 9
16 9 17 15 13 13 12 12 12 13 13 15 16 17 17 16 23 21 12 12 14 13 13 14 20 11 10 11 7 8 8 8 7 7 7 7 5 7 7 7 6 7 9
20 19 18 17 16 16 16 15 17 16 16 18 20 18 18 18 23 26 21 14 11 12 12 13 14 19 19 19 16 11 9 7 5 4 3 2 1 1 5 6 4 6 8
24 22 20 19 16 17 19 19 21 20 21 18 18 17 15 16 18 23 23 21 16 15 12 11 13 18 18 16 13 11 8 3 3 4 3 2 6 6 7 6 6 6 7
26 24 21 19 21 22 25 19 18 16 14 15 13 17 14 12 13 19 19 19 16 14 9 9 9 9 13 13 10 4 7 2 4 5 5 5 6 6 7 4 4 3 9
26 24 20 20 21 18 17 15 16 15 14 13 12 13 11 10 9 8 9 11 14 10 9 8 9 9 10 3 3 2 5 7 6 5 6 4 4 5 5 6 7 7 8
23 21 20 19 19 19 17 13 14 12 12 13 10 9 11 11 6 7 7 9 9 6 4 5 4 4 2 3 4 5 5 5 5 5 5 6 6 7 6 7 6 7 8
26 20 19 20 20 18 19 18 21 17 16 16 17 15 15 13 12 14 13 11 7 3 4 5 4 4 4 5 4 4 5 5 6 5 5 6 7 8 8 7 6 7 8
23 21 19 16 15 16 16 17 18 17 18 17 17 18 16 14 13 12 10 8 2 6 6 6 5 5 5 4 4 4 6 6 4 5 5 6 7 8 7 7 7 7 8
21 20 20 18 15 13 13 13 12 13 13 12 9 11 11 10 7 4 3 5 6 5 4 4 3 2 3 4 5 6 6 6 4 5 6 7 8 8 8 8 8 7 9
16 14 13 12 12 11 10 10 10 9 9 11 10 7 6 7 7 4 6 4 5 5 5 5 5 5 4 4 5 6 6 7 6 7 7 8 8 8 8 8 8 2 5
13 8 9 12 10 10 7 7 7 6 4 4 4 5 6 9 3 4 4 4 4 5 5 4 4 5 5 5 5 5 5 3 5 7 8 9 8 8 8 8 8 8 8
12 10 3 6 8 7 6 5 4 2 1 3 4 8 7 5 3 4 4 5 5 6 5 5 5 5 3 2 5 5 4 5 5 7 8 8 7 8 8 8 8 8 9
5 8 7 4 8 10 8 7 3 2 2 2 5 6 3 4 3 4 5 5 6 5 5 5 5 4 4 5 4 5 4 5 6 7 8 8 8 8 8 9 8 8 9
4 2 3 4 5 8 8 4 3 3 5 5 4 3 2 3 3 3 4 4 5 4 4 4 5 5 2 2 3 4 7 6 7 8 9 9 9 8 9 9 9 9 10
1 1 3 7 7 6 6 6 4 5 1 3 4 2 1 1 1 2 4 4 4 3 3 4 4 5 5 7 7 6 4 3 8 9 10 9 8 7 9 9 9 10 10
1 2 4 5 5 7 5 3 5 5 5 4 3 2 1 1 0 1 1 1 2 4 4 5 6 8 9 9 11 10 10 8 4 7 9 9 8 9 8 9 9 10 10
3 1 2 2 3 4 5 5 4 3 3 3 3 2 2 3 1 2 2 1 4 5 4 5 7 8 9 7 7 12 9 5 2 3 8 8 7 8 8 10 10 10 10
Wind_Direction
160 120 134 118 130 81 72 75 80 102 113 120 122 120 135 146 149 175 191 181 188 191 229 213 216 228 259 240 232 234 229 225 238 119 91 110 99 88 113 124 113 100 89
132 105 113 164 145 136 99 93 108 107 126 133 124 107 124 150 160 173 192 177 193 204 223 225 238 242 243 248 238 221 216 188 254 164 102 113 102 106 104 112 135 102 107
160 128 112 169 164 169 148 131 129 129 136 121 139 110 104 114 129 136 121 96 59 358 330 314 276 287 260 259 256 194 336 306 264 270 135 126 123 126 109 96 106 115 108
197 154 131 142 137 143 149 150 143 147 162 149 116 113 107 105 106 118 140 153 140 66 50 41 25 22 307 288 122 243 238 243 223 182 115 124 119 98 105 150 121 111 132
199 175 151 142 132 130 131 124 124 119 124 130 128 141 148 151 147 154 152 149 126 95 73 67 64 71 71 58 77 57 51 187 179 160 162 154 150 142 129 111 153 267 135
194 182 161 158 148 140 141 137 135 132 129 126 128 132 127 100 104 143 153 143 131 125 113 105 99 80 73 74 73 65 52 47 52 122 143 99 106 119 74 14 323 301 241
198 177 170 169 157 157 152 152 143 136 127 107 96 106 93 71 81 129 127 123 115 106 100 117 124 98 97 90 85 80 65 61 60 74 93 82 85 46 33 359 22 347 320
198 180 173 175 157 155 150 125 126 128 117 106 86 79 77 67 81 107 107 113 109 101 96 100 101 90 61 88 87 80 70 58 50 76 85 86 79 66 47 41 359 308 257
194 186 184 126 121 123 121 122 117 113 105 91 82 82 83 69 52 70 104 94 93 85 73 49 72 73 44 19 97 96 91 88 73 76 84 82 67 45 30 339 349 323 310
185 107 98 112 119 113 102 95 96 96 102 97 88 83 74 70 55 57 85 100 95 89 68 63 42 47 42 21 99 112 111 104 99 98 88 76 61 67 50 45 354 318 309
95 91 91 95 98 98 93 84 84 94 99 97 94 82 73 59 56 60 62 71 84 82 77 64 51 57 57 53 53 69 78 99 100 88 59 37 7 318 16 21 358 309 311
91 89 90 90 93 93 94 92 89 89 89 84 82 72 50 52 53 61 64 68 64 82 74 72 77 65 64 61 71 78 98 119 144 183 245 321 331 339 351 347 327 315 317
96 94 93 97 96 105 103 96 88 86 89 88 78 84 63 44 56 65 74 80 83 86 92 101 103 117 115 87 67 20 262 326 327 313 340 342 339 347 309 304 273 251 244
92 92 99 97 93 85 86 81 89 89 87 81 85 84 83 71 61 65 84 96 108 122 130 95 79 82 67 69 199 62 28 10 349 358 335 352 338 341 342 343 324 326 310
94 96 94 93 93 84 69 75 84 72 94 104 100 110 106 94 77 65 78 86 81 70 83 90 84 65 48 36 66 27 25 15 17 14 356 353 347 342 348 338 329 321 312
107 104 103 103 99 94 94 82 57 74 75 77 75 89 76 99 93 82 77 74 67 354 85 72 72 67 47 39 31 39 39 31 16 4 3 1 352 341 351 319 328 330 324
105 108 107 102 101 104 109 106 101 85 76 77 82 83 88 103 98 93 104 106 49 302 77 63 51 49 58 48 29 24 15 28 312 354 351 351 343 335 315 333 334 325 324
111 121 121 124 128 136 114 116 118 113 110 117 103 106 107 108 105 124 199 235 141 112 84 55 60 52 48 20 12 0 352 339 352 349 342 342 337 332 324 330 325 349 335
132 127 126 126 111 111 111 106 102 98 97 112 130 147 138 146 149 165 275 40 34 42 29 43 25 13 353 347 355 349 338 3 345 326 337 339 338 330 329 330 324 283 295
104 90 120 119 149 130 116 103 87 96 102 97 90 101 144 201 163 70 52 30 21 8 15 4 23 5 360 355 336 335 330 328 338 338 344 337 335 324 323 323 323 326 325
134 140 56 162 115 111 123 123 120 80 108 67 81 59 20 332 45 50 17 27 7 353 354 354 338 11 326 344 358 332 325 328 345 338 334 330 327 322 325 321 315 320 322
144 150 178 175 149 149 167 183 189 80 76 143 116 120 263 278 38 29 15 2 1 354 354 341 322 352 357 13 350 344 328 339 354 343 331 330 330 329 328 320 317 321 322
114 124 151 124 134 133 165 170 194 192 178 172 164 145 149 35 19 11 8 11 1 2 9 338 320 314 319 311 301 313 325 354 350 344 334 328 328 342 327 315 322 319 325
107 223 185 161 161 160 190 206 111 46 96 166 160 152 121 350 1 78 335 3 0 357 325 318 320 313 311 290 289 263 255 31 344 335 339 317 323 327 328 319 320 325 314
135 194 183 128 181 224 132 178 159 162 174 180 174 202 177 242 263 276 334 360 334 312 354 337 337 342 315 311 299 298 104 88 349 331 310 320 321 317 314 318 325 320 318
163 192 243 223 191 180 170 167 171 179 186 194 197 226 222 214 224 289 193 318 334 4 344 9 358 341 331 310 33 94 108 108 335 315 314 301 312 321 332 327 319 312 311